Goshen, IN

1:26 PM EDT on September 19, 2017 (GMT -0400)
Goshen Municipal

Weather History for KGSH - November, 2012

Change the Weather History Date:

Monday, November 12, 2012

  Actual Average Record
Temperature  
Mean Temperature 46 °F -  
Max Temperature 61 °F 47 °F 71 °F (1949)
Min Temperature 32 °F 32 °F 16 °F (1950)
Degree Days  
Heating Degree Days 18    
Moisture  
Dew Point 34 °F    
Average Humidity 79    
Maximum Humidity 93    
Minimum Humidity 57    
Precipitation  
Precipitation 0.42 in - - ()
Sea Level Pressure  
Sea Level Pressure 30.06 in    
Wind  
Wind Speed 14 mph (WSW)    
Max Wind Speed 23 mph    
Max Gust Speed 33 mph    
Visibility 8 miles    
Events Rain , Snow    
Averages and records for this station are not official NWS values.
T = Trace of Precipitation, MM = Missing Value Source: NWS Daily Summary

Daily Weather History Graph

Daily Weather History Graph

Search for Another Location

Airport or City:

Trip Planner

Search our weather history database for the weather conditions in past years. The results will help you decide how hot, cold, wet, or windy it might be!

Date:

Astronomy

Nov. 12, 2012 Rise Set
Actual Time 7:28 AM EST 5:25 PM EST
Civil Twilight 6:59 AM EST 5:54 PM EST
Nautical Twilight 6:25 AM EST 6:28 PM EST
Astronomical Twilight 5:53 AM EST 7:01 PM EST
Moon 5:52 AM EST (11/12) 4:30 PM EST (11/12)
Length of Visible Light 10h 55m
Length of Day
9h 56m
Waning Crescent, 2% of the Moon is Illuminated
Nov 12
Waning Crescent
Nov 13
New
Nov 20
First Quarter
Nov 28
Full
Dec 6
Last Quarter

Hourly Weather History & Observations

Time (EST) Temp. Windchill Dew Point Humidity Pressure Visibility Wind Dir Wind Speed Gust Speed Precip Events Conditions
12:53 AM 61.0 °F - 46.0 °F 58% 29.91 in 10.0 mi WSW 20.7 mph 33.4 mph N/A   Overcast
1:20 AM 53.6 °F - 48.2 °F 82% 29.93 in 5.0 mi West 15.0 mph 25.3 mph 0.00 in Rain Light Rain
1:53 AM 52.0 °F - 50.0 °F 93% 29.93 in 5.0 mi SW 4.6 mph - 0.02 in Rain Light Rain
2:32 AM 51.8 °F - 48.2 °F 88% 29.93 in 5.0 mi SW 4.6 mph - 0.05 in Rain Rain
2:53 AM 52.0 °F - 48.9 °F 89% 29.92 in 10.0 mi South 5.8 mph - 0.06 in Rain Light Rain
3:44 AM 51.8 °F - 48.2 °F 88% 29.93 in 6.0 mi SSW 6.9 mph - 0.08 in Rain Rain
3:51 AM 51.8 °F - 48.2 °F 88% 29.93 in 6.0 mi SSW 6.9 mph - 0.09 in Rain Light Rain
3:53 AM 51.1 °F - 48.9 °F 92% 29.93 in 6.0 mi South 6.9 mph - 0.10 in Rain Light Rain
4:02 AM 51.8 °F - 48.2 °F 88% 29.92 in 5.0 mi South 8.1 mph - 0.01 in Rain Rain
4:13 AM 51.8 °F - 48.2 °F 88% 29.92 in 6.0 mi SSW 9.2 mph - 0.02 in Rain Light Rain
4:50 AM 46.4 °F 39.8 °F 44.6 °F 93% 29.96 in 6.0 mi West 16.1 mph - 0.09 in Rain Rain
4:53 AM 46.9 °F - 44.1 °F 90% 29.96 in 6.0 mi West 15.0 mph - 0.10 in Rain Rain
5:01 AM 46.4 °F 39.8 °F 42.8 °F 87% 29.96 in 5.0 mi West 16.1 mph - 0.03 in Rain Heavy Rain
5:53 AM 44.1 °F 36.2 °F 39.9 °F 85% 29.98 in 9.0 mi West 18.4 mph 25.3 mph 0.08 in Rain Light Rain
6:08 AM 42.8 °F 35.4 °F 39.2 °F 87% 29.97 in 10.0 mi WSW 15.0 mph - 0.01 in Rain Light Rain
6:30 AM 41.0 °F 33.1 °F 37.4 °F 87% 29.97 in 9.0 mi West 15.0 mph - 0.02 in Rain Light Rain
6:53 AM 41.0 °F 34.7 °F 37.9 °F 89% 29.99 in 10.0 mi WSW 10.4 mph - 0.02 in   Overcast
7:37 AM 39.2 °F 28.7 °F 35.6 °F 87% 30.01 in 10.0 mi West 23.0 mph 27.6 mph 0.01 in Rain Light Rain
7:53 AM 39.0 °F 30.3 °F 35.1 °F 86% 30.02 in 10.0 mi West 16.1 mph - 0.01 in Rain Light Rain
8:29 AM 37.4 °F 28.5 °F 33.8 °F 87% 30.03 in 6.0 mi WSW 15.0 mph - 0.01 in Rain Light Rain
8:53 AM 35.1 °F 25.9 °F 32.0 °F 89% 30.06 in 3.0 mi WSW 13.8 mph - 0.03 in Snow Light Snow
8:57 AM 33.8 °F 22.5 °F 32.0 °F 93% 30.05 in 1.8 mi WSW 19.6 mph 24.2 mph 0.00 in Snow Light Snow
9:09 AM 33.8 °F 23.5 °F 30.2 °F 87% 30.06 in 0.8 mi WSW 16.1 mph - 0.00 in Snow Light Snow
9:21 AM 33.8 °F 24.3 °F 30.2 °F 87% 30.06 in 2.0 mi West 13.8 mph - 0.00 in Snow Light Snow
9:30 AM 33.8 °F 24.3 °F 30.2 °F 87% 30.06 in 4.0 mi WSW 13.8 mph - 0.00 in Snow Light Snow
9:53 AM 34.0 °F 23.8 °F 30.0 °F 85% 30.09 in 5.0 mi WSW 16.1 mph - 0.00 in Snow Light Snow
10:26 AM 33.8 °F 23.5 °F 30.2 °F 87% 30.08 in 8.0 mi WSW 16.1 mph - 0.00 in   Overcast
10:46 AM 33.8 °F 22.5 °F 28.4 °F 81% 30.08 in 10.0 mi WSW 19.6 mph - 0.00 in   Overcast
10:53 AM 33.1 °F 22.2 °F 28.9 °F 85% 30.10 in 10.0 mi WSW 17.3 mph - 0.00 in   Overcast
11:24 AM 32.0 °F 19.5 °F 26.6 °F 80% 30.10 in 10.0 mi WSW 21.9 mph 28.8 mph N/A   Overcast
11:53 AM 33.1 °F 22.2 °F 26.1 °F 75% 30.12 in 10.0 mi WSW 17.3 mph - N/A   Overcast
12:53 PM 36.0 °F 25.0 °F 26.1 °F 67% 30.11 in 10.0 mi WSW 20.7 mph 27.6 mph N/A   Mostly Cloudy
1:07 PM 37.4 °F 27.2 °F 26.6 °F 65% 30.10 in 10.0 mi WSW 19.6 mph - N/A   Scattered Clouds
1:53 PM 37.0 °F 27.4 °F 25.0 °F 62% 30.12 in 10.0 mi West 17.3 mph 27.6 mph N/A   Clear
3:53 PM 37.0 °F 26.7 °F 23.0 °F 57% 30.15 in 10.0 mi WSW 19.6 mph - N/A   Partly Cloudy
4:53 PM 34.0 °F 22.1 °F 21.0 °F 59% 30.19 in 10.0 mi WSW 21.9 mph - N/A   Partly Cloudy
5:53 PM 33.1 °F 23.0 °F 21.0 °F 61% 30.22 in 10.0 mi WSW 15.0 mph - N/A   Clear
6:53 PM 33.1 °F 23.4 °F 21.9 °F 64% 30.25 in 10.0 mi WSW 13.8 mph - N/A   Mostly Cloudy
7:53 PM 33.1 °F 23.9 °F 21.9 °F 64% 30.26 in 10.0 mi West 12.7 mph - N/A   Mostly Cloudy
8:53 PM 34.0 °F 24.6 °F 21.9 °F 61% 30.28 in 10.0 mi WSW 13.8 mph - N/A   Overcast
9:53 PM 34.0 °F 24.2 °F 21.9 °F 61% 30.30 in 10.0 mi WSW 15.0 mph 25.3 mph N/A   Overcast
10:53 PM 34.0 °F 23.0 °F 21.9 °F 61% 30.32 in 10.0 mi WSW 18.4 mph 23.0 mph N/A   Overcast
11:53 PM 34.0 °F 24.6 °F 21.0 °F 59% 30.33 in 10.0 mi WSW 13.8 mph - N/A   Overcast